Location: Decatur Area Astronomy Club
(40.0275°N, 88.7810°W)
Time: 06:08:07
(UTC-05:00)

Amateur Radio Satellites - All Passes

Search period start: 30 May 2017 05:38
Search period end: 31 May 2017 05:38
Location: Decatur Area Astronomy Club, 40.0275°N, 88.7810°W

Satellite Date Start Highest point End Downlink Frequencies (MHz)
Time Altitude Azimuth
PCSat 30 May 05:39:36 05:42:11 14° 257° (WSW) 05:44:47 145.827
KKS-1 30 May 05:42:49 05:46:27 25° 264° (W) 05:50:06 437.445
RS-15 30 May 05:46:01 05:55:15 23° 344° (NNW) 06:04:29 29.354- 29.394
AO-7 30 May 05:50:44 05:58:26 43° 298° (WNW) 06:06:08 .
LilacSat-2 30 May 05:57:58 05:59:27 12° 91° (E) 06:00:55 437.200
STRAND 1 30 May 06:00:14 06:02:09 12° 59° (ENE) 06:04:04 437.568
STARS 30 May 06:02:01 06:05:59 35° 262° (W) 06:09:59 437.465
SO-50 30 May 06:14:32 06:18:55 48° 54° (NE) 06:23:18 436.795
CUBESAT XI-V 30 May 06:18:01 06:19:07 11° 271° (W) 06:20:13 437.345
XW-2D 30 May 06:25:52 06:29:07 25° 96° (E) 06:32:20 145.860 - 145.880
NUDT-PHONESAT 30 May 06:30:21 06:33:16 21° 95° (E) 06:36:10 437.300
XW-2B 30 May 06:33:47 06:37:14 30° 97° (E) 06:40:38 145.730 - 145.750
XW-2F 30 May 06:43:19 06:46:56 39° 98° (E) 06:50:30 145.980 - 146.000
KAITUO 1B 30 May 06:44:11 06:47:36 32° 97° (E) 06:51:00 145.475/437.950
XW-2C 30 May 06:47:26 06:51:10 46° 99° (E) 06:54:51 145.795 - 145.815
BEESAT 2 30 May 06:51:49 06:54:10 15° 317° (NW) 06:56:33 435.950
DOVE 4 30 May 06:59:36 07:03:47 66° 284° (WNW) 07:08:06 437.250
HO-68 30 May 07:07:43 07:12:43 20° 92° (E) 07:17:40 435.675
CUTE-I 30 May 07:12:15 07:17:36 69° 102° (ESE) 07:22:56 437.470
CUTE 1.7 + AOD 2 30 May 07:18:52 07:21:20 15° 92° (E) 07:23:48 437.475
NO-84 30 May 07:26:55 07:31:17 66° 133° (SE) 07:35:35 435.350 FM
LilacSat-2 30 May 07:30:15 07:33:58 45° 286° (WNW) 07:37:39 437.200
XW-2A 30 May 07:31:08 07:33:06 14° 93° (E) 07:35:03 145.665 - 145.685
STRAND 1 30 May 07:35:28 07:40:34 85° 255° (WSW) 07:45:43 437.568
SO-50 30 May 07:55:59 07:58:59 18° 250° (WSW) 08:01:59 436.795
SEEDS 30 May 07:59:21 08:02:57 27° 96° (E) 08:06:30 437.485
XW-2D 30 May 08:00:13 08:03:09 21° 291° (WNW) 08:06:04 145.860 - 145.880
NUDT-PHONESAT 30 May 08:04:02 08:07:06 24° 290° (WNW) 08:10:10 437.300
RS-15 30 May 08:04:12 08:13:50 25° 21° (NNE) 08:23:12 29.354- 29.394
XW-2B 30 May 08:08:32 08:11:10 18° 292° (WNW) 08:13:48 145.730 - 145.750
XW-2F 30 May 08:18:36 08:20:42 14° 294° (WNW) 08:22:48 145.980 - 146.000
KAITUO 1B 30 May 08:18:53 08:21:21 17° 293° (WNW) 08:23:47 145.475/437.950
XW-2C 30 May 08:23:16 08:24:55 12° 295° (WNW) 08:26:34 145.795 - 145.815
M-CUBED/EXP-1 PRIME 30 May 08:25:28 08:29:37 79° 71° (ENE) 08:33:28 437.505
CUBEBUG 2 30 May 08:37:19 08:41:55 59° 100° (E) 08:46:35 437.445
UWE-3 30 May 08:39:12 08:43:30 37° 97° (E) 08:47:49 435.000/436.395/437.385
FO-29 30 May 08:44:34 08:47:22 15° 59° (ENE) 08:50:16 435.910
AAUSAT CUBESAT 2 30 May 08:46:22 08:50:19 43° 98° (E) 08:54:14 437.432
PRISM 30 May 08:48:43 08:50:51 14° 64° (ENE) 08:53:00 437.425
CUTE 1.7 + AOD 2 30 May 08:53:20 08:57:23 43° 287° (WNW) 09:01:23 437.475
HO-68 30 May 08:53:51 09:01:03 74° 289° (WNW) 09:08:12 435.675
CUTE-I 30 May 08:53:54 08:57:02 16° 299° (WNW) 09:00:11 437.470
Oscar 11 30 May 08:55:40 08:58:59 21° 94° (E) 09:02:16 .
XW-2A 30 May 09:02:52 09:05:54 29° 288° (WNW) 09:08:54 145.665 - 145.685
NO-84 30 May 09:05:35 09:09:12 25° 331° (NNW) 09:12:45 435.350 FM
TIGRISAT 30 May 09:22:43 09:26:10 24° 68° (ENE) 09:29:41 435.000
AO-73 30 May 09:26:29 09:31:01 61° 100° (E) 09:35:33 145.935
SEEDS 30 May 09:35:08 09:38:30 24° 291° (WNW) 09:41:51 437.485
ZACube-1 30 May 09:42:59 09:47:35 80° 282° (WNW) 09:52:10 437.345
UNISAT 6 30 May 09:54:47 09:59:00 59° 74° (ENE) 10:03:19 437.425
DELFI C3 30 May 10:02:59 10:06:28 30° 97° (E) 10:09:54 145.870
CUBEBUG 2 30 May 10:15:27 10:18:03 15° 295° (WNW) 10:20:40 437.445
UWE-3 30 May 10:16:09 10:19:42 22° 293° (WNW) 10:23:16 435.000/436.395/437.385
RS-15 30 May 10:17:31 10:29:39 61° 51° (NE) 10:41:08 29.354- 29.394
PRISM 30 May 10:21:43 10:25:43 48° 260° (W) 10:29:43 437.425
AAUSAT CUBESAT 2 30 May 10:23:01 10:25:24 15° 294° (WNW) 10:27:47 437.432
FO-29 30 May 10:26:40 10:31:48 68° 258° (WSW) 10:37:11 435.910
Oscar 11 30 May 10:31:15 10:35:09 32° 289° (WNW) 10:39:01 .
QB50P2 30 May 10:35:04 10:36:25 11° 63° (ENE) 10:37:47 145.880/145.840
EO-88 30 May 10:38:20 10:41:58 58° 100° (E) 10:45:35 145.990 - 145.960
HO-68 30 May 10:44:01 10:47:33 14° 308° (NW) 10:51:05 435.675
NO-84 30 May 10:46:59 10:48:04 11° 351° (N) 10:49:09 435.350 FM
TIGRISAT 30 May 10:59:02 11:02:44 28° 264° (W) 11:06:30 435.000
AO-73 30 May 11:04:25 11:06:43 14° 296° (WNW) 11:09:00 145.935
EO-79 30 May 11:08:21 11:11:44 24° 68° (ENE) 11:15:08 145.935-145.965
LO-87 30 May 11:08:35 11:10:50 16° 94° (E) 11:13:05 145.935 - 145.965
YUBILEINY 30 May 11:22:14 11:30:19 38° 72° (ENE) 11:38:19 435.215
AIST 2D 30 May 11:23:34 11:27:04 73° 76° (ENE) 11:30:37 435.315
ESTCUBE 1 30 May 11:25:37 11:28:32 17° 93° (E) 11:31:26 437.505/2401.250
UNISAT 6 30 May 11:34:46 11:36:07 11° 270° (W) 11:37:29 437.425
DELFI C3 30 May 11:38:14 11:41:01 19° 292° (WNW) 11:43:48 145.870
NANOSAT C BR1 30 May 11:49:55 11:54:02 65° 75° (ENE) 11:58:12 145.865
AO-85 30 May 11:52:12 11:55:29 23° 49° (NE) 11:58:53 145.980
DUCHIFAT 1 30 May 11:58:14 12:02:22 73° 74° (ENE) 12:06:33 145.980
POLYITAN 1 30 May 11:58:30 12:02:40 89° 248° (WSW) 12:06:55 437.675
BUGSAT 1 30 May 12:00:20 12:03:25 22° 68° (ENE) 12:06:31 437.445
BEESAT 3 30 May 12:04:44 12:06:26 12° 41° (NE) 12:08:09 437.485
QB50P2 30 May 12:07:30 12:11:39 63° 260° (W) 12:15:50 145.880/145.840
NO-84 30 May 12:25:43 12:27:16 12° 13° (NNE) 12:28:47 435.350 FM
O/OREOS (USA 219) 30 May 12:26:59 12:30:38 23° 58° (ENE) 12:34:15 437.305
RS-15 30 May 12:30:45 12:41:34 41° 253° (WSW) 12:51:56 29.354- 29.394
LO-87 30 May 12:41:13 12:44:18 28° 289° (WNW) 12:47:24 145.935 - 145.965
EO-79 30 May 12:43:50 12:47:23 27° 264° (W) 12:50:57 145.935-145.965
SPROUT 30 May 12:59:30 13:03:37 45° 99° (E) 13:07:44 437.525
ESTCUBE 1 30 May 13:01:15 13:05:32 43° 288° (WNW) 13:09:45 437.505/2401.250
AO-7 30 May 13:09:54 13:13:00 13° 45° (NE) 13:16:06 .
Oscar 19 30 May 13:15:37 13:20:42 57° 72° (ENE) 13:25:48 437.125/150
YUBILEINY 30 May 13:18:55 13:27:13 48° 272° (W) 13:35:30 435.215
50 SAT 30 May 13:22:20 13:25:31 37° 99° (E) 13:28:41 437.505
Gurwin Techsat 1B 30 May 13:27:57 13:32:58 45° 70° (ENE) 13:38:01 435.225
BEESAT 2 30 May 13:30:31 13:34:07 30° 50° (NE) 13:37:41 435.950
AO-85 30 May 13:32:12 13:35:54 33° 244° (WSW) 13:39:48 145.980
BUGSAT 1 30 May 13:35:14 13:38:38 27° 264° (W) 13:42:05 437.445
VELOX 1 30 May 13:37:56 13:42:18 69° 286° (WNW) 13:46:39 145.980
BEESAT 3 30 May 13:40:32 13:44:34 80° 239° (WSW) 13:48:31 437.485
UKube-1 30 May 13:43:00 13:46:47 29° 97° (E) 13:50:33 .
DX 1 30 May 13:59:16 14:03:36 69° 102° (ESE) 14:07:55 434.975-435.025
NO-84 30 May 14:02:19 14:05:55 33° 33° (NNE) 14:09:15 435.350 FM
O/OREOS (USA 219) 30 May 14:06:03 14:10:05 33° 255° (WSW) 14:14:04 437.305
ITAMSAT 1 30 May 14:27:57 14:31:59 24° 65° (ENE) 14:36:01 435.822/435.867
SPROUT 30 May 14:36:34 14:39:09 16° 295° (WNW) 14:41:43 437.525
AO-7 30 May 14:55:56 15:03:57 57° 66° (ENE) 15:12:01 .
BEESAT 30 May 14:56:28 14:59:36 17° 93° (E) 15:02:43 436.000
50 SAT 30 May 14:56:50 14:58:00 11° 294° (WNW) 14:59:10 437.505
Oscar 19 30 May 14:57:05 15:00:21 17° 268° (W) 15:03:38 437.125/150
BEESAT 2 30 May 15:08:26 15:11:45 24° 247° (WSW) 15:15:01 435.950
Gurwin Techsat 1B 30 May 15:09:04 15:13:06 22° 267° (W) 15:17:10 435.225
UKube-1 30 May 15:19:14 15:22:39 23° 293° (WNW) 15:26:03 .
MOZHAYETS 4 30 May 15:36:24 15:40:15 25° 95° (E) 15:44:05
DX 1 30 May 15:37:51 15:39:12 11° 298° (WNW) 15:40:31 434.975-435.025
NO-84 30 May 15:40:11 15:43:23 27° 233° (SW) 15:46:20 435.350 FM
ITUPSAT 1 30 May 16:02:19 16:07:09 81° 103° (ESE) 16:11:58 437.325
ITAMSAT 1 30 May 16:06:17 16:11:10 42° 261° (W) 16:16:05 435.822/435.867
DOVE 4 30 May 16:30:43 16:31:31 10° 63° (ENE) 16:32:19 437.250
BEESAT 30 May 16:33:00 16:37:37 48° 288° (WNW) 16:42:12 436.000
CUBESAT XI-V 30 May 16:34:45 16:38:00 19° 93° (E) 16:41:14 437.345
AO-7 30 May 16:49:54 16:57:01 32° 263° (W) 17:04:14 .
CUTE-I 30 May 16:56:49 16:59:25 14° 60° (ENE) 17:02:02 437.470
XW-2D 30 May 17:07:58 17:09:36 12° 65° (ENE) 17:11:14 145.860 - 145.880
MOZHAYETS 4 30 May 17:13:19 17:17:23 31° 291° (WNW) 17:21:25
XW-2B 30 May 17:15:27 17:17:37 15° 66° (ENE) 17:19:48 145.730 - 145.750
XW-2F 30 May 17:24:13 17:26:50 18° 68° (ENE) 17:29:28 145.980 - 146.000
KAITUO 1B 30 May 17:24:35 17:26:44 15° 66° (ENE) 17:28:53 145.475/437.950
XW-2C 30 May 17:28:30 17:31:24 21° 69° (ENE) 17:34:20 145.795 - 145.815
KKS-1 30 May 17:33:12 17:37:37 62° 102° (ESE) 17:42:01 437.445
HO-68 30 May 17:37:47 17:41:35 15° 53° (NE) 17:45:24 435.675
ITUPSAT 1 30 May 17:42:37 17:44:16 12° 300° (WNW) 17:45:57 437.325
Tancredo 1 30 May 17:46:59 17:48:54 16° 131° (SE) 17:50:50 437.200
STARS 30 May 17:51:25 17:55:35 41° 99° (E) 17:59:44 437.465
DOVE 4 30 May 18:04:10 18:08:41 72° 258° (WSW) 18:13:00 437.250
LilacSat-2 30 May 18:10:46 18:14:36 75° 76° (ENE) 18:18:29 437.200
CUBESAT XI-V 30 May 18:11:11 18:15:32 41° 289° (WNW) 18:19:50 437.345
CUTE 1.7 + AOD 2 30 May 18:12:30 18:13:34 11° 63° (ENE) 18:14:39 437.475
CUTE-I 30 May 18:33:28 18:38:47 79° 258° (WSW) 18:44:07 437.470
PCSat 30 May 18:34:41 18:40:06 82° 117° (ESE) 18:45:33 145.827
XW-2D 30 May 18:39:40 18:43:21 46° 261° (W) 18:47:04 145.860 - 145.880
NUDT-PHONESAT 30 May 18:41:37 18:45:17 59° 260° (W) 18:49:00 437.300
XW-2B 30 May 18:47:54 18:51:27 38° 262° (W) 18:55:04 145.730 - 145.750
SEEDS 30 May 18:50:47 18:53:44 18° 67° (ENE) 18:56:41 437.485
KAITUO 1B 30 May 18:56:53 19:00:24 37° 262° (W) 19:03:57 145.475/437.950
XW-2F 30 May 18:57:22 19:00:44 30° 263° (W) 19:04:09 145.980 - 146.000
ISS 30 May 19:02:05 19:05:20 61° 140° (SE) 19:08:36 437.550
XW-2C 30 May 19:02:15 19:05:27 25° 264° (W) 19:08:41 145.795 - 145.815
KKS-1 30 May 19:11:38 19:13:37 13° 298° (WNW) 19:15:36 437.445
HO-68 30 May 19:21:00 19:28:09 78° 72° (ENE) 19:35:23 435.675
Tancredo 1 30 May 19:21:22 19:24:21 48° 326° (NW) 19:27:21 437.200
STARS 30 May 19:28:36 19:31:36 18° 295° (WNW) 19:34:36 437.465
XW-2A 30 May 19:32:45 19:36:05 75° 76° (ENE) 19:39:29 145.665 - 145.685
CUBEBUG 2 30 May 19:34:52 19:38:48 41° 72° (ENE) 19:42:50 437.445
AAUSAT CUBESAT 2 30 May 19:35:50 19:39:20 27° 70° (ENE) 19:42:51 437.432
UWE-3 30 May 19:35:54 19:39:23 25° 68° (ENE) 19:42:57 435.000/436.395/437.385
CUTE 1.7 + AOD 2 30 May 19:44:31 19:48:48 70° 259° (W) 19:53:05 437.475
STRAND 1 30 May 19:46:50 19:51:31 34° 97° (E) 19:56:11 437.568
Oscar 11 30 May 19:50:28 19:53:06 16° 65° (ENE) 19:55:44 .
PCSat 30 May 20:20:40 20:24:10 17° 316° (NW) 20:27:42 145.827
AO-73 30 May 20:21:09 20:25:09 41° 72° (ENE) 20:29:15 145.935
SEEDS 30 May 20:25:11 20:29:08 37° 263° (W) 20:33:06 437.485
SO-50 30 May 20:29:24 20:32:28 18° 110° (ESE) 20:35:31 436.795
ZACube-1 30 May 20:37:44 20:41:57 71° 75° (ENE) 20:46:18 437.345
ISS 30 May 20:39:26 20:42:03 21° 337° (NNW) 20:44:41 437.550
DELFI C3 30 May 20:48:25 20:51:00 17° 67° (ENE) 20:53:36 145.870
Tancredo 1 30 May 20:59:09 21:00:40 13° 345° (NNW) 21:02:12 437.200
AAUSAT CUBESAT 2 30 May 21:11:20 21:14:44 24° 265° (W) 21:18:08 437.432
HO-68 30 May 21:11:52 21:16:33 18° 269° (W) 21:21:17 435.675
UWE-3 30 May 21:12:13 21:15:45 26° 265° (W) 21:19:22 435.000/436.395/437.385
CUBEBUG 2 30 May 21:13:07 21:15:38 15° 269° (W) 21:18:12 437.445
EO-88 30 May 21:15:48 21:18:42 22° 69° (ENE) 21:21:37 145.990 - 145.960
Oscar 11 30 May 21:24:39 21:28:50 46° 261° (W) 21:33:03 .
STRAND 1 30 May 21:26:12 21:30:33 28° 293° (WNW) 21:34:53 437.568
FO-29 30 May 21:35:39 21:40:19 19° 92° (E) 21:45:17 435.910
M-CUBED/EXP-1 PRIME 30 May 21:38:54 21:42:07 56° 106° (ESE) 21:45:21 437.505
UNISAT 6 30 May 21:48:14 21:50:45 14° 91° (E) 21:53:15 437.425
AO-73 30 May 21:58:54 22:01:35 16° 268° (W) 22:04:19 145.935
PRISM 30 May 22:04:03 22:07:13 22° 95° (E) 22:10:22 437.425
SO-50 30 May 22:08:06 22:12:33 49° 306° (NW) 22:16:59 436.795
ISS 30 May 22:18:26 22:19:31 11° 357° (N) 22:20:36 437.550
DELFI C3 30 May 22:21:49 22:25:29 35° 262° (W) 22:29:10 145.870
ESTCUBE 1 30 May 22:24:57 22:27:38 16° 64° (ENE) 22:30:19 437.505/2401.250
Tancredo 1 30 May 22:37:05 22:37:30 10° 6° (N) 22:37:53 437.200
EO-88 30 May 22:49:26 22:52:18 21° 265° (W) 22:55:10 145.990 - 145.960
TIGRISAT 30 May 22:49:55 22:54:32 60° 100° (E) 22:59:10 435.000
LO-87 30 May 23:15:50 23:19:21 85° 255° (WSW) 23:22:55 145.935 - 145.965
FO-29 30 May 23:19:02 23:25:44 78° 286° (WNW) 23:33:13 435.910
UNISAT 6 30 May 23:23:11 23:27:45 56° 286° (WNW) 23:32:20 437.425
NANOSAT C BR1 30 May 23:37:10 23:38:19 11° 90° (E) 23:39:28 145.865
PRISM 30 May 23:39:01 23:42:28 27° 291° (WNW) 23:45:54 437.425
DUCHIFAT 1 30 May 23:44:42 23:46:23 12° 91° (E) 23:48:04 145.980
POLYITAN 1 30 May 23:45:03 23:47:41 16° 93° (E) 23:50:17 437.675
SPROUT 30 May 23:52:11 23:55:55 31° 70° (ENE) 23:59:40 437.525
QB50P2 30 May 23:53:28 23:56:45 21° 94° (E) 00:00:02 145.880/145.840
ISS 30 May 23:54:54 23:57:05 16° 18° (NNE) 23:59:16 437.550
50 SAT 30 May 23:55:09 23:56:54 14° 67° (ENE) 23:58:40 437.505
ESTCUBE 1 30 May 23:59:34 00:03:59 52° 260° (W) 00:08:26 437.505/2401.250
Tancredo 1 31 May 00:11:32 00:14:05 23° 25° (NNE) 00:16:37 437.200
AIST 2D 31 May 00:22:14 00:25:49 80° 283° (WNW) 00:29:21 435.315
YUBILEINY 31 May 00:22:20 00:30:23 43° 87° (E) 00:38:28 435.215
EO-79 31 May 00:28:10 00:32:19 48° 100° (E) 00:36:26 145.935-145.965
TIGRISAT 31 May 00:28:12 00:30:43 15° 296° (WNW) 00:33:14 435.000
VELOX 1 31 May 00:34:01 00:38:27 86° 258° (WSW) 00:42:53 145.980
UKube-1 31 May 00:36:57 00:40:25 24° 68° (ENE) 00:43:52 .
RS-15 31 May 00:39:48 00:50:33 40° 106° (ESE) 01:01:31 29.354- 29.394
DX 1 31 May 00:53:49 00:58:02 54° 73° (ENE) 01:02:17 434.975-435.025
FO-29 31 May 01:06:35 01:09:56 14° 301° (WNW) 01:13:27 435.910
NANOSAT C BR1 31 May 01:10:11 01:14:24 60° 285° (WNW) 01:18:34 145.865
BUGSAT 1 31 May 01:16:36 01:20:33 40° 99° (E) 01:24:31 437.445
DUCHIFAT 1 31 May 01:18:12 01:22:22 54° 286° (WNW) 01:26:30 145.980
POLYITAN 1 31 May 01:19:34 01:23:38 43° 288° (WNW) 01:27:41 437.675
50 SAT 31 May 01:26:20 01:29:27 32° 262° (W) 01:32:35 437.505
SPROUT 31 May 01:28:39 01:31:51 21° 266° (W) 01:35:04 437.525
Oscar 19 31 May 01:28:41 01:32:30 21° 93° (E) 01:36:17 437.125/150
QB50P2 31 May 01:28:46 01:32:33 31° 290° (WNW) 01:36:20 145.880/145.840
ISS 31 May 01:30:46 01:34:03 72° 37° (NE) 01:37:19 437.550
PCSat 31 May 01:42:49 01:43:59 11° 37° (NE) 01:45:09 145.827
Gurwin Techsat 1B 31 May 01:45:40 01:49:19 19° 92° (E) 01:52:57 435.225
Tancredo 1 31 May 01:47:00 01:49:55 41° 222° (SW) 01:52:48 437.200
BEESAT 31 May 02:02:19 02:05:41 20° 65° (ENE) 02:09:04 436.000
EO-79 31 May 02:05:14 02:07:40 15° 295° (WNW) 02:10:05 145.935-145.965
UKube-1 31 May 02:12:33 02:16:18 29° 263° (W) 02:20:03 .
YUBILEINY 31 May 02:19:06 02:27:09 40° 287° (WNW) 02:35:19 435.215
DX 1 31 May 02:32:34 02:34:32 13° 268° (W) 02:36:29 434.975-435.025
MOZHAYETS 4 31 May 02:37:45 02:41:23 23° 67° (ENE) 02:45:02
O/OREOS (USA 219) 31 May 02:38:25 02:42:24 29° 103° (ESE) 02:46:22 437.305
RS-15 31 May 02:50:25 03:02:26 64° 308° (NW) 03:14:47 29.354- 29.394
BUGSAT 1 31 May 02:52:55 02:55:36 17° 294° (WNW) 02:58:16 437.445
AO-7 31 May 03:00:03 03:05:08 17° 91° (E) 03:10:11 .
Oscar 19 31 May 03:07:07 03:12:01 45° 289° (WNW) 03:16:52 437.125/150
ITUPSAT 1 31 May 03:08:07 03:12:54 87° 74° (ENE) 03:17:43 437.325
ISS 31 May 03:08:54 03:10:07 12° 231° (SW) 03:11:19 437.550
PCSat 31 May 03:23:15 03:28:37 56° 58° (ENE) 03:33:55 145.827
Gurwin Techsat 1B 31 May 03:24:23 03:29:33 53° 288° (WNW) 03:34:42 435.225
BEESAT 3 31 May 03:30:26 03:33:14 19° 111° (ESE) 03:36:05 437.485
CUBESAT XI-V 31 May 03:37:35 03:40:48 18° 65° (ENE) 03:44:00 437.345
BEESAT 31 May 03:38:34 03:43:06 45° 260° (W) 03:47:42 436.000
AO-85 31 May 03:45:34 03:49:45 87° 125° (SE) 03:53:46 145.980
MOZHAYETS 4 31 May 04:14:09 04:18:19 34° 263° (W) 04:22:33
O/OREOS (USA 219) 31 May 04:17:51 04:21:45 27° 300° (WNW) 04:25:39 437.305
ITAMSAT 1 31 May 04:19:16 04:24:30 71° 102° (ESE) 04:29:42 435.822/435.867
KKS-1 31 May 04:30:19 04:34:37 52° 73° (ENE) 04:38:55 437.445
STARS 31 May 04:47:20 04:51:13 33° 70° (ENE) 04:55:09 437.465
AO-7 31 May 04:50:27 04:58:52 89° 109° (ESE) 05:07:16 .
BEESAT 2 31 May 04:57:59 05:01:54 64° 119° (ESE) 05:05:53 435.950
SO-50 31 May 05:00:25 05:03:20 17° 42° (NE) 05:06:15 436.795
BEESAT 3 31 May 05:06:52 05:10:33 36° 308° (NW) 05:14:17 437.485
PCSat 31 May 05:07:44 05:11:31 20° 255° (WSW) 05:15:18 145.827
RS-15 31 May 05:08:22 05:18:07 26° 337° (NNW) 05:27:55 29.354- 29.394
CUBESAT XI-V 31 May 05:13:17 05:17:48 46° 261° (W) 05:22:20 437.345
AO-85 31 May 05:29:29 05:30:40 11° 319° (NW) 05:31:51 145.980
